Home   Weather   Wismar   Past weeks

Flag for Germany Past Weather in Wismar, Mecklenburg-Western Pomerania, Germany — Yesterday and Last 2 Weeks

Now
64 °F

Scattered clouds.


Feels Like: 64 °F
Forecast: 50 / 66 °F
Wind: 13 mph from West

Location: Luebeck-Blankensee

Current Time: Jun 26, 2017 at 5:31:26 pm

Latest Report: Jun 26, 2017 at 4:50 pm


Visibility: N/A

Pressure: 29.89 "Hg

Humidity: 56%

Dew Point: 48 °F

Location of WismarLocation

Past Weather in Wismar — Graph

°F

Wismar Temperature Yesterday

Maximum temperature yesterday: 64 °F (at 11:20 am)
Minimum temperature yesterday: 59 °F (at 7:50 am)
Average temperature yesterday: 62 °F

High & Low Weather Summary for the Past Weeks

 TemperatureHumidityPressure
High82 °F (Jun 19, 3:50 pm)100% (Jun 15, 6:50 am)30.27 "Hg (Jun 15, 6:50 am)
Low52 °F (Jun 21, 6:50 am)41% (Jun 20, 5:50 pm)29.68 "Hg (Jun 25, 7:28 am)
Average66 °F72%29.97 "Hg
* Reported Jun 11 4:20 pm — Jun 26 4:20 pm, Wismar. Weather by CustomWeather, © 2017

Note: Actual official high and low records may vary slightly from our data, if they occured in-between our weather recording intervals... More about our weather records

Advertising

Wismar Weather History for the Previous 24 Hours

Scroll right to see more
 ConditionsComfort  
Time TempWeatherWind HumidityBarometerVisibility
4:20 pm
Mon, Jun 26
63 °FScattered clouds.8 mph59%29.89 "HgN/A
3:50 pm66 °FScattered clouds.12 mph52%29.86 "HgN/A
3:20 pm66 °FScattered clouds.12 mph52%29.86 "HgN/A
2:50 pm66 °FScattered clouds.12 mph49%29.86 "HgN/A
2:20 pm64 °FScattered clouds.12 mph56%29.86 "HgN/A
1:50 pm64 °FPartly sunny.9 mph60%29.86 "HgN/A
1:20 pm63 °FPartly sunny.12 mph64%29.86 "HgN/A
12:50 pm64 °FBroken clouds.12 mph64%29.86 "HgN/A
12:20 pm61 °FPartly sunny.13 mph68%29.86 "HgN/A
11:50 am61 °FBroken clouds.8 mph72%29.83 "HgN/A
11:20 am61 °FPartly sunny.8 mph72%29.83 "HgN/A
10:50 am57 °FPartly sunny.8 mph82%29.83 "HgN/A
10:20 am61 °FPartly sunny.10 mph68%29.80 "HgN/A
9:50 am61 °FScattered clouds.10 mph68%29.80 "HgN/A
9:20 am61 °FPartly sunny.12 mph68%29.80 "HgN/A
8:50 am59 °FScattered clouds.9 mph77%29.80 "HgN/A
8:20 am59 °FScattered clouds.9 mph77%29.80 "HgN/A
7:50 am59 °FPassing clouds.8 mph77%29.80 "HgN/A
7:20 am57 °FPassing clouds.8 mph88%29.80 "HgN/A
8:20 pm
Sun, Jun 25
59 °FPartly sunny.8 mph77%29.80 "HgN/A
7:50 pm59 °FPartly sunny.7 mph77%29.77 "HgN/A
7:20 pm61 °FPartly sunny.8 mph72%29.80 "HgN/A
6:50 pm61 °FPartly sunny.12 mph72%29.77 "HgN/A
6:20 pm61 °FPartly sunny.12 mph72%29.77 "HgN/A
5:50 pm61 °FPartly sunny.12 mph72%29.77 "HgN/A
5:20 pm63 °FPartly sunny.13 mph68%29.77 "HgN/A
Weather by CustomWeather, © 2017

See weather overviewHow to use our weather pages